Lyndonville, VT

12:12 AM EDT on August 24, 2016 (GMT -0400)
Lyndonville

Weather History for KCDA - September, 2013

Change the Weather History Date:

Sunday, September 15, 2013

  Actual Average (K1V4) Record (K1V4)
Temperature  
Mean Temperature 54 °F 60 °F  
Max Temperature 66 °F 71 °F 94 °F (1915)
Min Temperature 41 °F 50 °F 26 °F (1913)
Degree Days  
Heating Degree Days 12 6  
Month to date heating degree days 57  
Since 1 July heating degree days 107  
Cooling Degree Days 0 1  
Month to date cooling degree days 26  
Year to date cooling degree days 424  
Growing Degree Days 4 (Base 50)    
Moisture  
Dew Point 45 °F    
Average Humidity 78    
Maximum Humidity 92    
Minimum Humidity 49    
Precipitation  
Precipitation 0.00 in 0.11 in 1.75 in (1904)
Month to date precipitation 1.54  
Year to date precipitation 27.30  
Sea Level Pressure  
Sea Level Pressure 30.09 in    
Wind  
Wind Speed 1 mph (SSW)    
Max Wind Speed 8 mph    
Max Gust Speed -    
Visibility 6 miles    
Events Fog    
T = Trace of Precipitation, MM = Missing Value Source: NWS Daily Summary

Daily Weather History Graph

Daily Weather History Graph

Search for Another Location

Airport or City:

Trip Planner

Search our weather history database for the weather conditions in past years. The results will help you decide how hot, cold, wet, or windy it might be!

Date:

Astronomy

Sep. 15, 2013 Rise Set
Actual Time 6:27 AM EDT 6:58 PM EDT
Civil Twilight 5:57 AM EDT 7:27 PM EDT
Nautical Twilight 5:23 AM EDT 8:02 PM EDT
Astronomical Twilight 4:47 AM EDT 8:37 PM EDT
Moon 4:30 PM EDT (9/15) 1:53 AM EDT (9/15)
Length of Visible Light 13h 29m
Length of Day
12h 31m
Waxing Gibbous, 82% of the Moon is Illuminated
Sep 15
Waxing Gibbous
Sep 19
Full
Sep 26
Last Quarter
Oct 4
New
Oct 11
First Quarter

Hourly Weather History & Observations

Time (EDT) Temp. Dew Point Humidity Pressure Visibility Wind Dir Wind Speed Gust Speed Precip Events Conditions
12:15 AM 45.3 °F 42.8 °F 91% 30.10 in 0.5 mi Calm Calm - N/A Fog Fog
12:35 AM 45.3 °F 42.8 °F 91% 30.08 in 0.2 mi Calm Calm - N/A   Light Drizzle
12:55 AM 44.6 °F 42.1 °F 91% 30.08 in 0.2 mi Calm Calm - N/A   Light Drizzle
1:15 AM 43.9 °F 41.5 °F 91% 30.09 in 0.2 mi Calm Calm - N/A Fog Fog
1:35 AM 43.9 °F 41.5 °F 91% 30.09 in 0.2 mi Calm Calm - N/A   Light Drizzle
1:55 AM 43.2 °F 41.0 °F 92% 30.09 in 0.2 mi Calm Calm - N/A Fog Fog
2:15 AM 43.9 °F 41.5 °F 91% 30.09 in 0.2 mi Calm Calm - N/A Fog Fog
2:35 AM 44.1 °F 41.7 °F 91% 30.10 in 0.2 mi Calm Calm - N/A Fog Fog
2:55 AM 43.2 °F 40.8 °F 91% 30.09 in 0.2 mi Calm Calm - N/A Fog Fog
3:15 AM 43.7 °F 41.2 °F 91% 30.09 in 0.2 mi Calm Calm - N/A Fog Fog
3:35 AM 42.6 °F 40.3 °F 91% 30.10 in 0.2 mi Calm Calm - N/A Fog Fog
3:55 AM 42.1 °F 39.7 °F 91% 30.10 in 0.2 mi Calm Calm - N/A Fog Fog
4:15 AM 42.6 °F 40.1 °F 91% 30.10 in 0.2 mi Calm Calm - N/A Fog Fog
4:35 AM 42.4 °F 40.1 °F 91% 30.11 in 0.2 mi Calm Calm - N/A   Light Drizzle
4:55 AM 42.1 °F 39.7 °F 91% 30.11 in 0.2 mi Calm Calm - N/A Fog Fog
5:15 AM 42.3 °F 39.9 °F 91% 30.12 in 0.2 mi Calm Calm - N/A Fog Fog
5:35 AM 41.9 °F 39.7 °F 92% 30.12 in 0.2 mi Calm Calm - N/A Fog Fog
5:55 AM 41.9 °F 39.6 °F 91% 30.12 in 0.2 mi Calm Calm - N/A Fog Fog
6:15 AM 41.9 °F 39.6 °F 91% 30.12 in 0.2 mi Calm Calm - N/A Fog Fog
6:35 AM 42.1 °F 39.7 °F 91% 30.12 in 0.2 mi Calm Calm - N/A Fog Fog
6:55 AM 41.9 °F 39.6 °F 91% 30.13 in 0.2 mi Calm Calm - N/A Fog Fog
7:15 AM 41.9 °F 39.7 °F 92% 30.13 in 0.2 mi Calm Calm - N/A Fog Fog
7:35 AM 41.9 °F 39.7 °F 92% 30.13 in 0.2 mi Calm Calm - N/A Fog Fog
7:55 AM 42.1 °F 39.7 °F 91% 30.14 in 0.2 mi Calm Calm - N/A Fog Fog
8:15 AM 42.8 °F 40.3 °F 91% 30.14 in 0.2 mi Calm Calm - N/A Fog Fog
8:35 AM 43.2 °F 41.0 °F 92% 30.14 in 0.2 mi Calm Calm - N/A Fog Fog
8:55 AM 43.5 °F 41.0 °F 91% 30.15 in 0.2 mi Calm Calm - N/A Fog Fog
9:15 AM 44.1 °F 41.7 °F 91% 30.15 in 0.2 mi Calm Calm - N/A Fog Fog
9:35 AM 44.8 °F 42.4 °F 91% 30.15 in 0.2 mi Calm Calm - N/A Fog Fog
9:55 AM 46.4 °F 44.1 °F 92% 30.15 in 0.2 mi Calm Calm - N/A Fog Fog
10:15 AM 48.0 °F 45.7 °F 92% 30.15 in 10.0 mi Calm Calm - N/A   Overcast
10:35 AM 48.4 °F 46.0 °F 92% 30.16 in 10.0 mi Calm Calm - N/A   Mostly Cloudy
10:55 AM 50.4 °F 48.0 °F 92% 30.14 in 10.0 mi Calm Calm - N/A   Scattered Clouds
11:15 AM 51.6 °F 49.5 °F 92% 30.14 in 10.0 mi SSE 4.6 mph - N/A   Clear
11:35 AM 52.2 °F 49.8 °F 92% 30.13 in 10.0 mi South 4.6 mph - N/A   Scattered Clouds
11:55 AM 56.8 °F 50.0 °F 78% 30.13 in 10.0 mi SSE 4.6 mph - N/A   Mostly Cloudy
12:15 PM 59.9 °F 48.2 °F 65% 30.12 in 10.0 mi SSE 3.5 mph - N/A   Mostly Cloudy
12:35 PM 59.7 °F 47.3 °F 63% 30.12 in 10.0 mi South 5.8 mph - N/A   Mostly Cloudy
12:55 PM 61.0 °F 46.2 °F 58% 30.12 in 10.0 mi SE 3.5 mph - N/A   Overcast
1:15 PM 63.5 °F 47.7 °F 56% 30.11 in 10.0 mi East 3.5 mph - N/A   Mostly Cloudy
1:35 PM 63.0 °F 46.0 °F 54% 30.11 in 10.0 mi South 6.9 mph - N/A   Scattered Clouds
1:55 PM 63.5 °F 47.7 °F 56% 30.10 in 10.0 mi WSW 6.9 mph - N/A   Scattered Clouds
2:15 PM 64.9 °F 46.8 °F 52% 30.09 in 10.0 mi West 4.6 mph - N/A   Scattered Clouds
2:35 PM 65.1 °F 46.9 °F 52% 30.08 in 10.0 mi SSW 6.9 mph - N/A   Clear
2:55 PM 65.3 °F 47.1 °F 52% 30.08 in 10.0 mi South 4.6 mph - N/A   Mostly Cloudy
3:15 PM 63.9 °F 46.2 °F 53% 30.07 in 10.0 mi SSE 3.5 mph - N/A   Overcast
3:35 PM 66.2 °F 46.2 °F 49% 30.07 in 10.0 mi Calm Calm - N/A   Scattered Clouds
3:55 PM 64.9 °F 47.3 °F 53% 30.06 in 10.0 mi South 3.5 mph - N/A   Scattered Clouds
4:15 PM 65.5 °F 46.9 °F 51% 30.06 in 10.0 mi Calm Calm - N/A   Mostly Cloudy
4:35 PM 66.7 °F 46.9 °F 49% 30.05 in 10.0 mi WSW 8.1 mph - N/A   Scattered Clouds
4:55 PM 64.0 °F 46.9 °F 54% 30.05 in 10.0 mi West 6.9 mph - N/A   Mostly Cloudy
5:15 PM 63.5 °F 46.6 °F 54% 30.06 in 10.0 mi West 5.8 mph - N/A   Scattered Clouds
5:35 PM 62.4 °F 45.3 °F 54% 30.06 in 10.0 mi West 5.8 mph - N/A   Clear
5:55 PM 61.7 °F 45.1 °F 55% 30.06 in 10.0 mi West 5.8 mph - N/A   Clear
6:15 PM 60.6 °F 45.9 °F 58% 30.05 in 10.0 mi Calm Calm - N/A   Clear
6:35 PM 59.4 °F 46.0 °F 61% 30.05 in 10.0 mi Calm Calm - N/A   Clear
6:55 PM 58.1 °F 46.2 °F 65% 30.05 in 10.0 mi NW 3.5 mph - N/A   Clear
7:15 PM 57.2 °F 45.1 °F 64% 30.04 in 10.0 mi Calm Calm - N/A   Clear
7:35 PM 58.1 °F 44.6 °F 61% 30.04 in 10.0 mi Calm Calm - N/A   Clear
7:55 PM 55.4 °F 48.0 °F 76% 30.05 in 10.0 mi Calm Calm - N/A   Clear
8:15 PM 55.6 °F 49.1 °F 79% 30.06 in 10.0 mi West 3.5 mph - N/A   Clear
8:35 PM 55.4 °F 48.4 °F 77% 30.06 in 10.0 mi Calm Calm - N/A   Scattered Clouds
8:55 PM 56.3 °F 47.5 °F 72% 30.06 in 10.0 mi Calm Calm - N/A   Scattered Clouds
9:15 PM 54.7 °F 48.6 °F 80% 30.07 in 10.0 mi Calm Calm - N/A   Scattered Clouds
9:35 PM 54.7 °F 48.6 °F 80% 30.06 in 10.0 mi Calm Calm - N/A   Scattered Clouds
9:55 PM 54.5 °F 48.9 °F 81% 30.03 in 10.0 mi NE 3.5 mph - N/A   Scattered Clouds
10:15 PM 53.6 °F 49.1 °F 85% 30.05 in 10.0 mi Calm Calm - N/A   Clear
10:35 PM 52.7 °F 49.3 °F 88% 30.05 in 10.0 mi Calm Calm - N/A   Clear
10:55 PM 53.6 °F 49.3 °F 85% 30.06 in 10.0 mi Calm Calm - N/A   Clear
11:15 PM 54.1 °F 49.3 °F 84% 30.03 in 10.0 mi Calm Calm - N/A   Scattered Clouds
11:35 PM 52.9 °F 49.3 °F 88% 30.04 in 10.0 mi Calm Calm - N/A   Scattered Clouds
11:55 PM 52.7 °F 49.3 °F 88% 30.03 in 10.0 mi Calm Calm - N/A   Clear